Time,TemperatureF,DewpointF,PressureIn,WindDirection,WindDirectionDegrees,WindSpeedMPH,WindSpeedGustMPH,Humidity,HourlyPrecipIn,Conditions,Clouds,dailyrainin,SolarRadiationWatts/m^2,SoftwareType,DateUTC
2013-02-08 00:06:00,57.0,39.0,30.17,NNW,329,0.0,-999.0,51,-99.99,,,0.00,0,weatherlink.com 1.10,2013-02-08 08:06:00,
2013-02-08 00:21:00,57.6,36.0,30.16,WNW,288,7.0,-999.0,45,-99.99,,,0.00,0,weatherlink.com 1.10,2013-02-08 08:21:00,
2013-02-08 00:36:00,58.0,38.0,30.18,NW,322,9.0,-999.0,47,-99.99,,,0.00,0,weatherlink.com 1.10,2013-02-08 08:36:00,
2013-02-08 00:51:00,57.5,34.0,30.17,WNW,294,1.0,-999.0,42,-99.99,,,0.00,0,weatherlink.com 1.10,2013-02-08 08:51:00,
2013-02-08 01:06:00,57.3,34.0,30.17,West,277,2.0,-999.0,42,-99.99,,,0.00,0,weatherlink.com 1.10,2013-02-08 09:06:00,
2013-02-08 01:21:00,57.6,34.0,30.17,WNW,286,9.0,-999.0,41,-99.99,,,0.00,0,weatherlink.com 1.10,2013-02-08 09:21:00,
2013-02-08 01:36:00,57.4,36.0,30.17,WNW,283,0.0,-999.0,45,-99.99,,,0.00,0,weatherlink.com 1.10,2013-02-08 09:36:00,
2013-02-08 01:51:00,57.4,34.0,30.17,SSE,163,0.0,-999.0,42,-99.99,,,0.00,0,weatherlink.com 1.10,2013-02-08 09:51:00,
2013-02-08 02:06:00,56.9,34.0,30.16,SSE,163,0.0,-999.0,43,-99.99,,,0.00,0,weatherlink.com 1.10,2013-02-08 10:06:00,
2013-02-08 02:21:00,55.9,36.0,30.16,SE,138,0.0,-999.0,47,-99.99,,,0.00,0,weatherlink.com 1.10,2013-02-08 10:21:00,
2013-02-08 02:36:00,54.9,36.0,30.16,West,259,0.0,-999.0,49,-99.99,,,0.00,0,weatherlink.com 1.10,2013-02-08 10:36:00,
2013-02-08 02:51:00,55.6,33.0,30.16,WNW,286,13.0,-999.0,43,-99.99,,,0.00,0,weatherlink.com 1.10,2013-02-08 10:51:00,
2013-02-08 03:06:00,56.5,34.0,30.16,NNW,331,1.0,-999.0,43,-99.99,,,0.00,0,weatherlink.com 1.10,2013-02-08 11:06:00,
2013-02-08 03:21:00,56.2,34.0,30.16,NNW,333,0.0,-999.0,44,-99.99,,,0.00,0,weatherlink.com 1.10,2013-02-08 11:21:00,
2013-02-08 03:36:00,55.3,34.0,30.17,NNW,333,0.0,-999.0,45,-99.99,,,0.00,0,weatherlink.com 1.10,2013-02-08 11:36:00,
2013-02-08 03:51:00,53.9,35.0,30.17,NNW,333,0.0,-999.0,50,-99.99,,,0.00,0,weatherlink.com 1.10,2013-02-08 11:51:00,
2013-02-08 04:07:00,53.6,36.0,30.16,NNW,332,0.0,-999.0,51,-99.99,,,0.00,0,weatherlink.com 1.10,2013-02-08 12:07:00,
2013-02-08 04:21:00,54.2,34.0,30.16,West,277,4.0,-999.0,47,-99.99,,,0.00,0,weatherlink.com 1.10,2013-02-08 12:21:00,
2013-02-08 04:37:00,55.4,33.0,30.17,WNW,285,7.0,-999.0,43,-99.99,,,0.00,0,weatherlink.com 1.10,2013-02-08 12:37:00,
2013-02-08 04:52:00,55.4,31.0,30.17,WNW,284,5.0,-999.0,39,-99.99,,,0.00,0,weatherlink.com 1.10,2013-02-08 12:52:00,
2013-02-08 05:07:00,55.3,31.0,30.18,WNW,284,16.0,-999.0,39,-99.99,,,0.00,0,weatherlink.com 1.10,2013-02-08 13:07:00,
2013-02-08 05:22:00,55.7,31.0,30.19,WNW,294,0.0,-999.0,39,-99.99,,,0.00,0,weatherlink.com 1.10,2013-02-08 13:22:00,
2013-02-08 05:37:00,55.2,30.0,30.19,WNW,293,8.0,-999.0,39,-99.99,,,0.00,0,weatherlink.com 1.10,2013-02-08 13:37:00,
2013-02-08 05:52:00,54.6,30.0,30.20,West,281,0.0,-999.0,39,-99.99,,,0.00,0,weatherlink.com 1.10,2013-02-08 13:52:00,
2013-02-08 06:07:00,54.3,29.0,30.20,West,275,6.0,-999.0,38,-99.99,,,0.00,0,weatherlink.com 1.10,2013-02-08 14:07:00,
2013-02-08 06:22:00,53.8,29.0,30.19,West,261,10.0,-999.0,39,-99.99,,,0.00,0,weatherlink.com 1.10,2013-02-08 14:22:00,
2013-02-08 06:37:00,53.5,30.0,30.21,NW,318,0.0,-999.0,40,-99.99,,,0.00,5,weatherlink.com 1.10,2013-02-08 14:37:00,
2013-02-08 06:52:00,52.4,32.0,30.21,NNW,331,0.0,-999.0,46,-99.99,,,0.00,16,weatherlink.com 1.10,2013-02-08 14:52:00,
2013-02-08 07:07:00,51.5,32.0,30.21,NNW,332,0.0,-999.0,48,-99.99,,,0.00,44,weatherlink.com 1.10,2013-02-08 15:07:00,
2013-02-08 07:22:00,52.6,30.0,30.22,NW,319,5.0,-999.0,43,-99.99,,,0.00,88,weatherlink.com 1.10,2013-02-08 15:22:00,
2013-02-08 07:37:00,52.7,32.0,30.23,WNW,292,4.0,-999.0,46,-99.99,,,0.00,135,weatherlink.com 1.10,2013-02-08 15:37:00,
2013-02-08 07:52:00,53.0,33.0,30.23,WNW,302,0.0,-999.0,46,-99.99,,,0.00,188,weatherlink.com 1.10,2013-02-08 15:52:00,
2013-02-08 08:07:00,53.5,33.0,30.22,NNW,333,0.0,-999.0,46,-99.99,,,0.00,250,weatherlink.com 1.10,2013-02-08 16:07:00,
2013-02-08 08:22:00,54.2,33.0,30.23,NNW,333,0.0,-999.0,45,-99.99,,,0.00,301,weatherlink.com 1.10,2013-02-08 16:22:00,
2013-02-08 08:37:00,55.2,32.0,30.22,NNW,334,1.0,-999.0,42,-99.99,,,0.00,345,weatherlink.com 1.10,2013-02-08 16:37:00,
2013-02-08 08:52:00,55.6,32.0,30.23,NNW,337,2.0,-999.0,41,-99.99,,,0.00,385,weatherlink.com 1.10,2013-02-08 16:52:00,
2013-02-08 09:07:00,56.5,32.0,30.22,NNW,346,2.0,-999.0,40,-99.99,,,0.00,427,weatherlink.com 1.10,2013-02-08 17:07:00,
2013-02-08 09:23:00,57.6,31.0,30.21,WNW,296,0.0,-999.0,36,-99.99,,,0.00,468,weatherlink.com 1.10,2013-02-08 17:23:00,
2013-02-08 09:38:00,58.7,31.0,30.21,WNW,287,11.0,-999.0,35,-99.99,,,0.00,517,weatherlink.com 1.10,2013-02-08 17:38:00,
2013-02-08 09:53:00,58.8,32.0,30.21,WNW,288,2.0,-999.0,36,-99.99,,,0.00,647,weatherlink.com 1.10,2013-02-08 17:53:00,
2013-02-08 10:08:00,58.7,32.0,30.22,WNW,299,0.0,-999.0,36,-99.99,,,0.00,171,weatherlink.com 1.10,2013-02-08 18:08:00,
2013-02-08 10:23:00,59.6,36.0,30.22,West,279,7.0,-999.0,41,-99.99,,,0.00,633,weatherlink.com 1.10,2013-02-08 18:23:00,
2013-02-08 10:38:00,59.8,34.0,30.22,WNW,291,0.0,-999.0,38,-99.99,,,0.00,768,weatherlink.com 1.10,2013-02-08 18:38:00,
2013-02-08 10:53:00,60.0,35.0,30.22,NNW,348,5.0,-999.0,39,-99.99,,,0.00,287,weatherlink.com 1.10,2013-02-08 18:53:00,
2013-02-08 11:08:00,59.0,34.0,30.21,West,277,0.0,-999.0,39,-99.99,,,0.00,747,weatherlink.com 1.10,2013-02-08 19:08:00,
2013-02-08 11:23:00,60.2,34.0,30.20,SW,222,0.0,-999.0,38,-99.99,,,0.00,708,weatherlink.com 1.10,2013-02-08 19:23:00,
2013-02-08 11:38:00,60.5,34.0,30.19,WNW,290,1.0,-999.0,37,-99.99,,,0.00,840,weatherlink.com 1.10,2013-02-08 19:38:00,
2013-02-08 11:53:00,59.5,32.0,30.18,WNW,284,14.0,-999.0,36,-99.99,,,0.00,227,weatherlink.com 1.10,2013-02-08 19:53:00,
2013-02-08 12:08:00,59.2,33.0,30.19,West,275,6.0,-999.0,38,-99.99,,,0.00,232,weatherlink.com 1.10,2013-02-08 20:08:00,
2013-02-08 12:23:00,57.9,36.0,30.17,NNW,329,6.0,-999.0,44,-99.99,,,0.00,721,weatherlink.com 1.10,2013-02-08 20:23:00,
2013-02-08 12:38:00,58.0,35.0,30.17,North,349,2.0,-999.0,43,-99.99,,,0.00,749,weatherlink.com 1.10,2013-02-08 20:38:00,
2013-02-08 12:53:00,59.1,35.0,30.16,NW,314,5.0,-999.0,41,-99.99,,,0.00,773,weatherlink.com 1.10,2013-02-08 20:53:00,
2013-02-08 13:08:00,60.3,36.0,30.16,West,280,7.0,-999.0,40,-99.99,,,0.00,657,weatherlink.com 1.10,2013-02-08 21:08:00,
2013-02-08 13:23:00,59.6,37.0,30.16,SW,235,5.0,-999.0,43,-99.99,,,0.00,763,weatherlink.com 1.10,2013-02-08 21:23:00,
2013-02-08 13:38:00,54.2,36.0,30.18,North,355,13.0,-999.0,51,-99.99,,,0.00,214,weatherlink.com 1.10,2013-02-08 21:38:00,
2013-02-08 13:53:00,50.7,37.0,30.19,NNW,327,10.0,-999.0,59,-99.99,,,0.00,204,weatherlink.com 1.10,2013-02-08 21:53:00,
2013-02-08 14:08:00,50.0,37.0,30.18,NNW,329,8.0,-999.0,62,-99.99,,,0.00,487,weatherlink.com 1.10,2013-02-08 22:08:00,
2013-02-08 14:23:00,51.0,37.0,30.17,NNW,341,13.0,-999.0,59,-99.99,,,0.00,431,weatherlink.com 1.10,2013-02-08 22:23:00,
2013-02-08 14:38:00,51.7,36.0,30.17,NNW,337,7.0,-999.0,56,-99.99,,,0.00,260,weatherlink.com 1.10,2013-02-08 22:38:00,
2013-02-08 14:53:00,52.5,36.0,30.16,NNW,344,7.0,-999.0,53,-99.99,,,0.00,434,weatherlink.com 1.10,2013-02-08 22:53:00,
2013-02-08 15:08:00,52.2,35.0,30.17,NNW,329,9.0,-999.0,52,-99.99,,,0.00,111,weatherlink.com 1.10,2013-02-08 23:08:00,
2013-02-08 15:23:00,51.3,37.0,30.17,NNW,332,9.0,-999.0,58,-99.99,,,0.00,137,weatherlink.com 1.10,2013-02-08 23:23:00,
2013-02-08 15:38:00,52.2,37.0,30.17,NNW,331,9.0,-999.0,57,-99.99,,,0.00,269,weatherlink.com 1.10,2013-02-08 23:38:00,
2013-02-08 15:53:00,51.7,35.0,30.17,NNE,17,2.0,-999.0,54,-99.99,,,0.00,67,weatherlink.com 1.10,2013-02-08 23:53:00,
2013-02-08 16:08:00,50.5,36.0,30.18,NNW,334,9.0,-999.0,58,-99.99,,,0.00,49,weatherlink.com 1.10,2013-02-09 00:08:00,
2013-02-08 16:23:00,48.7,38.0,30.18,NNW,341,6.0,-999.0,67,-99.99,,,0.00,42,weatherlink.com 1.10,2013-02-09 00:23:00,
2013-02-08 16:38:00,47.8,37.0,30.17,NNW,348,2.0,-999.0,67,-99.99,,,0.00,35,weatherlink.com 1.10,2013-02-09 00:38:00,
2013-02-08 16:53:00,47.9,37.0,30.16,NNW,334,4.0,-999.0,67,-99.99,,,0.00,25,weatherlink.com 1.10,2013-02-09 00:53:00,
2013-02-08 17:08:00,48.2,37.0,30.17,NNW,346,9.0,-999.0,66,-99.99,,,0.00,9,weatherlink.com 1.10,2013-02-09 01:08:00,
2013-02-08 17:23:00,47.6,37.0,30.17,NNW,343,0.0,-999.0,67,-99.99,,,0.00,0,weatherlink.com 1.10,2013-02-09 01:23:00,
2013-02-08 17:38:00,47.8,37.0,30.18,NNW,340,0.0,-999.0,66,-99.99,,,0.00,0,weatherlink.com 1.10,2013-02-09 01:38:00,
2013-02-08 18:08:00,47.6,37.0,30.16,NW,318,0.0,-999.0,67,-99.99,,,0.01,0,weatherlink.com 1.10,2013-02-09 02:08:00,
2013-02-08 18:23:00,47.0,38.0,30.16,NW,318,0.0,-999.0,70,-99.99,,,0.01,0,weatherlink.com 1.10,2013-02-09 02:23:00,
2013-02-08 18:38:00,46.7,38.0,30.16,NW,318,0.0,-999.0,71,-99.99,,,0.01,0,weatherlink.com 1.10,2013-02-09 02:38:00,
2013-02-08 18:53:00,46.3,38.0,30.16,NW,318,0.0,-999.0,72,-99.99,,,0.01,0,weatherlink.com 1.10,2013-02-09 02:53:00,
2013-02-08 19:08:00,45.7,37.0,30.16,NW,318,0.0,-999.0,72,-99.99,,,0.01,0,weatherlink.com 1.10,2013-02-09 03:08:00,
2013-02-08 19:23:00,46.2,36.0,30.16,NW,319,0.0,-999.0,67,-99.99,,,0.01,0,weatherlink.com 1.10,2013-02-09 03:23:00,
2013-02-08 19:38:00,46.3,35.0,30.16,NW,319,0.0,-999.0,66,-99.99,,,0.01,0,weatherlink.com 1.10,2013-02-09 03:38:00,
2013-02-08 19:53:00,45.8,36.0,30.16,NW,319,0.0,-999.0,68,-99.99,,,0.01,0,weatherlink.com 1.10,2013-02-09 03:53:00,
2013-02-08 20:08:00,45.3,36.0,30.16,NW,319,0.0,-999.0,69,-99.99,,,0.01,0,weatherlink.com 1.10,2013-02-09 04:08:00,
2013-02-08 20:23:00,44.9,36.0,30.17,NW,319,0.0,-999.0,71,-99.99,,,0.01,0,weatherlink.com 1.10,2013-02-09 04:23:00,
2013-02-08 20:38:00,44.2,36.0,30.16,NW,319,0.0,-999.0,72,-99.99,,,0.01,0,weatherlink.com 1.10,2013-02-09 04:38:00,
2013-02-08 20:54:00,43.6,37.0,30.16,NW,319,0.0,-999.0,76,-99.99,,,0.01,0,weatherlink.com 1.10,2013-02-09 04:54:00,
2013-02-08 21:09:00,43.5,36.0,30.16,NW,319,0.0,-999.0,75,-99.99,,,0.01,0,weatherlink.com 1.10,2013-02-09 05:09:00,
2013-02-08 21:24:00,44.6,36.0,30.16,NW,319,0.0,-999.0,71,-99.99,,,0.01,0,weatherlink.com 1.10,2013-02-09 05:24:00,
2013-02-08 21:39:00,44.6,36.0,30.16,NW,319,0.0,-999.0,71,-99.99,,,0.01,0,weatherlink.com 1.10,2013-02-09 05:39:00,
2013-02-08 21:54:00,44.2,36.0,30.17,NW,318,0.0,-999.0,72,-99.99,,,0.01,0,weatherlink.com 1.10,2013-02-09 05:54:00,
2013-02-08 22:09:00,43.5,36.0,30.16,NW,318,0.0,-999.0,74,-99.99,,,0.01,0,weatherlink.com 1.10,2013-02-09 06:09:00,
2013-02-08 22:24:00,43.0,36.0,30.17,NW,319,0.0,-999.0,75,-99.99,,,0.01,0,weatherlink.com 1.10,2013-02-09 06:24:00,
2013-02-08 22:39:00,42.7,36.0,30.17,NW,318,0.0,-999.0,76,-99.99,,,0.01,0,weatherlink.com 1.10,2013-02-09 06:39:00,
2013-02-08 22:54:00,42.8,35.0,30.17,NW,319,0.0,-999.0,73,-99.99,,,0.01,0,weatherlink.com 1.10,2013-02-09 06:54:00,
2013-02-08 23:09:00,43.2,35.0,30.17,NW,319,0.0,-999.0,72,-99.99,,,0.01,0,weatherlink.com 1.10,2013-02-09 07:09:00,
2013-02-08 23:24:00,42.9,35.0,30.17,NW,319,0.0,-999.0,73,-99.99,,,0.01,0,weatherlink.com 1.10,2013-02-09 07:24:00,
2013-02-08 23:39:00,42.4,35.0,30.17,NW,319,0.0,-999.0,74,-99.99,,,0.01,0,weatherlink.com 1.10,2013-02-09 07:39:00,
2013-02-08 23:54:00,41.9,35.0,30.18,NW,319,0.0,-999.0,77,-99.99,,,0.01,0,weatherlink.com 1.10,2013-02-09 07:54:00,